| time (UTC) | temp C | wind direction | speed KPH | gust KPH | rain 1hr cm | rain 24hr cm | rain mn cm | humidity % | barometer mb |
| 20260506202325 | 8 | 323 | 0.0 | 0.0 | 0.03 | 1.17 | 0.94 | 95 | 1007.3 |
| 20260506201823 | 8 | 305 | 0.0 | 0.0 | 0.03 | 1.17 | 0.94 | 95 | 1007.1 |
| 20260506200819 | 8 | 299 | 0.0 | 0.0 | 0.05 | 1.17 | 0.94 | 95 | 1007.1 |
| 20260506200320 | 9 | 303 | 0.0 | 0.0 | 0.05 | 1.17 | 0.94 | 96 | 1007.0 |
| 20260506195817 | 9 | 71 | 0.0 | 0.0 | 0.05 | 1.17 | 0.94 | 96 | 1006.9 |
| 20260506195316 | 9 | 48 | 0.0 | 0.0 | 0.05 | 1.17 | 0.94 | 96 | 1006.8 |
| 20260506194834 | 9 | 340 | 0.0 | 0.0 | 0.03 | 1.14 | 0.91 | 96 | 1006.7 |
| 20260506194331 | 9 | 305 | 0.0 | 0.0 | 0.03 | 1.14 | 0.91 | 95 | 1006.6 |
| 20260506193830 | 9 | 305 | 0.0 | 0.0 | 0.03 | 1.14 | 0.91 | 95 | 1006.7 |
| 20260506193328 | 9 | 309 | 0.0 | 0.0 | 0.03 | 1.14 | 0.91 | 95 | 1006.5 |
| 20260506192826 | 9 | 306 | 0.0 | 0.0 | 0.03 | 1.14 | 0.91 | 95 | 1006.5 |
| 20260506192325 | 9 | 318 | 0.0 | 0.0 | 0.03 | 1.14 | 0.91 | 95 | 1006.5 |
| 20260506191824 | 9 | 279 | 0.0 | 0.0 | 0.03 | 1.14 | 0.91 | 96 | 1006.5 |
| 20260506191341 | 9 | 246 | 0.0 | 0.0 | 0.03 | 1.12 | 0.89 | 95 | 1006.4 |
| 20260506190839 | 9 | 266 | 0.0 | 0.0 | 0.03 | 1.12 | 0.89 | 95 | 1006.3 |
| 20260506190358 | 9 | 266 | 0.0 | 0.0 | 0.03 | 1.12 | 0.89 | 95 | 1006.2 |
| 20260506185851 | 9 | 266 | 0.0 | 0.0 | 0.03 | 1.12 | 0.89 | 95 | 1006.1 |
| 20260506185349 | 9 | 262 | 0.0 | 0.0 | 0.05 | 1.12 | 0.89 | 95 | 1006.1 |
| 20260506184827 | 9 | 345 | 0.0 | 0.0 | 0.05 | 1.12 | 0.89 | 95 | 1006.1 |
| 20260506184326 | 9 | 4 | 0.0 | 0.0 | 0.05 | 1.12 | 0.89 | 95 | 1006.0 |
| 20260506183825 | 10 | 354 | 0.0 | 0.0 | 0.05 | 1.12 | 0.89 | 95 | 1006.1 |
| 20260506183324 | 10 | 78 | 0.0 | 0.0 | 0.05 | 1.12 | 0.89 | 95 | 1005.9 |
| 20260506182822 | 10 | 328 | 0.0 | 0.0 | 0.05 | 1.12 | 0.89 | 95 | 1005.8 |
| 20260506182341 | 10 | 354 | 0.0 | 0.0 | 0.05 | 1.12 | 0.89 | 94 | 1005.7 |
| 20260506181819 | 10 | 12 | 0.0 | 0.0 | 0.05 | 1.12 | 0.89 | 94 | 1005.5 |
| 20260506181316 | 10 | 309 | 0.0 | 0.0 | 0.03 | 1.09 | 0.86 | 94 | 1005.5 |
| 20260506180815 | 10 | 312 | 0.0 | 0.0 | 0.03 | 1.09 | 0.86 | 93 | 1005.4 |
| 20260506180314 | 11 | 302 | 0.0 | 0.0 | 0.03 | 1.09 | 0.86 | 92 | 1005.3 |
| 20260506175813 | 12 | 4 | 0.0 | 0.0 | 0.05 | 1.09 | 0.86 | 92 | 1005.4 |
| 20260506175332 | 13 | 272 | 0.0 | 0.0 | 0.03 | 1.07 | 0.84 | 96 | 1005.2 |
| 20260506174831 | 14 | 218 | 0.0 | 0.0 | 0.03 | 1.07 | 0.84 | 96 | 1005.0 |
| 20260506174331 | 14 | 214 | 0.0 | 0.0 | 0.03 | 1.07 | 0.84 | 96 | 1005.0 |
| 20260506173829 | 14 | 186 | 0.0 | 0.0 | 0.05 | 1.07 | 0.84 | 96 | 1005.0 |
| 20260506173328 | 14 | 201 | 0.0 | 0.0 | 0.05 | 1.07 | 0.84 | 96 | 1005.1 |
| 20260506172847 | 14 | 265 | 0.0 | 4.8 | 0.05 | 1.07 | 0.84 | 96 | 1005.2 |
| 20260506172345 | 14 | 302 | 0.0 | 4.8 | 0.05 | 1.07 | 0.84 | 96 | 1005.3 |
| 20260506171823 | 14 | 224 | 0.0 | 0.0 | 0.08 | 1.07 | 0.84 | 96 | 1005.4 |
| 20260506171320 | 14 | 295 | 0.0 | 0.0 | 0.08 | 1.07 | 0.84 | 96 | 1005.3 |
| 20260506170819 | 14 | 260 | 0.0 | 0.0 | 0.10 | 1.07 | 0.84 | 96 | 1005.4 |
| 20260506170317 | 14 | 216 | 0.0 | 0.0 | 0.10 | 1.07 | 0.84 | 96 | 1005.3 |
| 20260506165815 | 14 | 228 | 0.0 | 0.0 | 0.10 | 1.04 | 0.81 | 97 | 1005.4 |
| 20260506165314 | 14 | 215 | 0.0 | 0.0 | 0.10 | 1.04 | 0.81 | 97 | 1005.5 |
| 20260506164833 | 14 | 249 | 0.0 | 0.0 | 0.13 | 1.04 | 0.81 | 97 | 1005.3 |
| 20260506164332 | 14 | 229 | 0.0 | 0.0 | 0.15 | 1.04 | 0.81 | 97 | 1005.3 |
| 20260506163853 | 14 | 210 | 0.0 | 0.0 | 0.15 | 1.02 | 0.79 | 97 | 1005.2 |
| 20260506163352 | 13 | 190 | 0.0 | 0.0 | 0.18 | 1.02 | 0.79 | 97 | 1005.4 |
| 20260506162827 | 13 | 230 | 0.0 | 0.0 | 0.20 | 1.02 | 0.79 | 97 | 1005.5 |
| 20260506162325 | 13 | 245 | 0.0 | 0.0 | 0.23 | 1.02 | 0.79 | 97 | 1005.6 |
| 20260506161823 | 13 | 214 | 0.0 | 0.0 | 0.20 | 0.99 | 0.76 | 97 | 1005.6 |
| 20260506161323 | 13 | 214 | 0.0 | 0.0 | 0.20 | 0.99 | 0.76 | 97 | 1005.7 |
| 20260506160822 | 13 | 216 | 0.0 | 0.0 | 0.18 | 0.97 | 0.74 | 97 | 1005.7 |
| 20260506160320 | 13 | 251 | 0.0 | 0.0 | 0.18 | 0.97 | 0.74 | 96 | 1005.8 |
| 20260506155818 | 13 | 187 | 0.0 | 0.0 | 0.15 | 0.94 | 0.71 | 96 | 1005.7 |
| 20260506155316 | 13 | 199 | 0.0 | 0.0 | 0.15 | 0.94 | 0.71 | 96 | 1005.8 |
| 20260506154835 | 13 | 210 | 0.0 | 0.0 | 0.13 | 0.91 | 0.69 | 96 | 1006.0 |
| 20260506154313 | 13 | 222 | 0.0 | 0.0 | 0.10 | 0.89 | 0.66 | 96 | 1006.0 |
| 20260506153828 | 13 | 212 | 0.0 | 0.0 | 0.08 | 0.86 | 0.64 | 97 | 1006.1 |
| 20260506153326 | 13 | 235 | 0.0 | 3.2 | 0.05 | 0.84 | 0.61 | 97 | 1005.8 |
| 20260506152845 | 13 | 274 | 0.0 | 3.2 | 0.03 | 0.81 | 0.58 | 97 | 1005.9 |
| 20260506152322 | 13 | 192 | 0.0 | 0.0 | 0.03 | 0.79 | 0.56 | 97 | 1005.9 |
| 20260506151821 | 13 | 220 | 0.0 | 0.0 | 0.03 | 0.79 | 0.56 | 97 | 1005.8 |
| 20260506151339 | 13 | 215 | 0.0 | 0.0 | 0.05 | 0.79 | 0.56 | 97 | 1005.8 |
| 20260506150817 | 13 | 207 | 0.0 | 0.0 | 0.05 | 0.79 | 0.56 | 97 | 1005.7 |
| 20260506150316 | 13 | 261 | 0.0 | 0.0 | 0.08 | 0.79 | 0.56 | 97 | 1005.6 |
| 20260506145814 | 13 | 261 | 0.0 | 0.0 | 0.10 | 0.79 | 0.56 | 97 | 1005.6 |
| 20260506145315 | 13 | 261 | 0.0 | 0.0 | 0.10 | 0.79 | 0.56 | 97 | 1005.6 |
| 20260506144814 | 13 | 261 | 0.0 | 0.0 | 0.13 | 0.79 | 0.56 | 97 | 1005.8 |
| 20260506144314 | 13 | 222 | 0.0 | 0.0 | 0.15 | 0.79 | 0.56 | 97 | 1005.8 |
| 20260506143832 | 13 | 251 | 0.0 | 0.0 | 0.18 | 0.79 | 0.56 | 97 | 1005.9 |
| 20260506143333 | 12 | 245 | 0.0 | 0.0 | 0.20 | 0.79 | 0.56 | 97 | 1005.9 |
| 20260506142831 | 12 | 268 | 0.0 | 0.0 | 0.23 | 0.79 | 0.56 | 97 | 1005.9 |
| 20260506142330 | 12 | 268 | 0.0 | 0.0 | 0.23 | 0.76 | 0.53 | 97 | 1006.1 |
| 20260506141829 | 12 | 268 | 0.0 | 0.0 | 0.28 | 0.76 | 0.53 | 97 | 1006.1 |
| 20260506141348 | 12 | 232 | 0.0 | 0.0 | 0.28 | 0.74 | 0.51 | 97 | 1006.2 |
| 20260506140826 | 12 | 60 | 0.0 | 0.0 | 0.28 | 0.71 | 0.48 | 97 | 1006.2 |
| 20260506140348 | 12 | 60 | 0.0 | 0.0 | 0.28 | 0.71 | 0.48 | 97 | 1006.5 |
| 20260506135825 | 12 | 293 | 0.0 | 0.0 | 0.25 | 0.69 | 0.46 | 97 | 1006.6 |
| 20260506135323 | 12 | 260 | 0.0 | 0.0 | 0.25 | 0.69 | 0.46 | 97 | 1006.5 |
| 20260506134823 | 12 | 210 | 0.0 | 0.0 | 0.23 | 0.66 | 0.43 | 97 | 1006.6 |
| 20260506134322 | 12 | 216 | 0.0 | 0.0 | 0.20 | 0.64 | 0.41 | 97 | 1006.6 |
| 20260506133841 | 12 | 216 | 0.0 | 0.0 | 0.18 | 0.61 | 0.38 | 97 | 1006.8 |
| 20260506133320 | 11 | 178 | 0.0 | 1.6 | 0.15 | 0.58 | 0.36 | 97 | 1007.0 |
| 20260506132818 | 11 | 150 | 0.0 | 0.0 | 0.10 | 0.53 | 0.30 | 97 | 1007.0 |
| 20260506132317 | 11 | 83 | 0.0 | 0.0 | 0.10 | 0.51 | 0.28 | 97 | 1007.0 |
| 20260506131815 | 11 | 83 | 0.0 | 0.0 | 0.08 | 0.48 | 0.25 | 97 | 1006.9 |
| 20260506131313 | 11 | 83 | 0.0 | 0.0 | 0.05 | 0.46 | 0.23 | 97 | 1006.8 |
| 20260506130832 | 11 | 83 | 0.0 | 0.0 | 0.03 | 0.43 | 0.20 | 97 | 1006.7 |
| 20260506130333 | 11 | 83 | 0.0 | 0.0 | 0.03 | 0.43 | 0.20 | 97 | 1006.5 |
| 20260506125830 | 11 | 83 | 0.0 | 0.0 | 0.03 | 0.43 | 0.20 | 96 | 1006.5 |
| 20260506125327 | 11 | 83 | 0.0 | 0.0 | 0.03 | 0.43 | 0.20 | 96 | 1006.3 |
| 20260506124826 | 11 | 83 | 0.0 | 0.0 | 0.03 | 0.43 | 0.20 | 97 | 1006.5 |
| 20260506124325 | 11 | 83 | 0.0 | 0.0 | 0.03 | 0.43 | 0.20 | 97 | 1006.4 |
| 20260506123823 | 11 | 83 | 0.0 | 0.0 | 0.03 | 0.43 | 0.20 | 97 | 1006.5 |
| 20260506123323 | 11 | 83 | 0.0 | 0.0 | 0.05 | 0.43 | 0.20 | 97 | 1006.5 |
| 20260506122821 | 11 | 83 | 0.0 | 0.0 | 0.05 | 0.43 | 0.20 | 97 | 1006.5 |
| 20260506122340 | 11 | 83 | 0.0 | 0.0 | 0.03 | 0.41 | 0.18 | 97 | 1006.6 |
| 20260506121817 | 10 | 83 | 0.0 | 0.0 | 0.03 | 0.41 | 0.18 | 97 | 1006.7 |
| 20260506121316 | 10 | 83 | 0.0 | 0.0 | 0.03 | 0.41 | 0.18 | 96 | 1006.7 |
| 20260506120816 | 10 | 83 | 0.0 | 0.0 | 0.05 | 0.41 | 0.18 | 96 | 1006.8 |
| 20260506120333 | 10 | 83 | 0.0 | 0.0 | 0.05 | 0.41 | 0.18 | 96 | 1006.8 |
| 20260506115832 | 10 | 83 | 0.0 | 0.0 | 0.08 | 0.41 | 0.18 | 96 | 1006.9 |
| 20260506115331 | 10 | 83 | 0.0 | 0.0 | 0.08 | 0.41 | 0.18 | 96 | 1006.9 |
| 20260506114829 | 10 | 83 | 0.0 | 0.0 | 0.08 | 0.41 | 0.18 | 96 | 1006.8 |
| 20260506114327 | 10 | 83 | 0.0 | 0.0 | 0.10 | 0.41 | 0.18 | 96 | 1006.9 |
| 20260506113847 | 10 | 83 | 0.0 | 0.0 | 0.10 | 0.41 | 0.18 | 96 | 1007.0 |
| 20260506113327 | 10 | 83 | 0.0 | 0.0 | 0.08 | 0.38 | 0.15 | 96 | 1007.1 |
| 20260506112826 | 10 | 83 | 0.0 | 0.0 | 0.10 | 0.38 | 0.15 | 96 | 1007.3 |
| 20260506112324 | 10 | 83 | 0.0 | 0.0 | 0.10 | 0.38 | 0.15 | 96 | 1007.4 |
| 20260506111822 | 10 | 83 | 0.0 | 0.0 | 0.10 | 0.38 | 0.15 | 96 | 1007.4 |
| 20260506111321 | 10 | 83 | 0.0 | 0.0 | 0.10 | 0.38 | 0.15 | 96 | 1007.5 |
| 20260506110820 | 10 | 83 | 0.0 | 0.0 | 0.08 | 0.36 | 0.13 | 96 | 1007.5 |
| 20260506110320 | 10 | 79 | 0.0 | 0.0 | 0.08 | 0.36 | 0.13 | 96 | 1007.4 |
| 20260506105818 | 10 | 4 | 0.0 | 0.0 | 0.05 | 0.33 | 0.10 | 96 | 1007.3 |
| 20260506105317 | 10 | 4 | 0.0 | 0.0 | 0.05 | 0.33 | 0.10 | 96 | 1007.3 |
| 20260506104817 | 10 | 4 | 0.0 | 0.0 | 0.05 | 0.33 | 0.10 | 95 | 1007.2 |
| 20260506104315 | 10 | 4 | 0.0 | 0.0 | 0.05 | 0.30 | 0.08 | 95 | 1007.1 |
| 20260506103834 | 10 | 4 | 0.0 | 0.0 | 0.05 | 0.30 | 0.08 | 95 | 1007.0 |
| 20260506103333 | 10 | 4 | 0.0 | 0.0 | 0.05 | 0.30 | 0.08 | 95 | 1006.9 |
| 20260506102832 | 10 | 4 | 0.0 | 0.0 | 0.03 | 0.28 | 0.05 | 95 | 1006.9 |
| 20260506102347 | 10 | 4 | 0.0 | 0.0 | 0.05 | 0.28 | 0.05 | 95 | 1006.7 |
| 20260506101824 | 10 | 4 | 0.0 | 0.0 | 0.05 | 0.28 | 0.05 | 95 | 1006.8 |
| 20260506101343 | 10 | 4 | 0.0 | 0.0 | 0.05 | 0.28 | 0.05 | 95 | 1006.7 |
| 20260506100841 | 10 | 4 | 0.0 | 0.0 | 0.05 | 0.28 | 0.05 | 94 | 1006.7 |
| 20260506100341 | 10 | 4 | 0.0 | 0.0 | 0.05 | 0.28 | 0.05 | 94 | 1006.8 |
| 20260506095819 | 10 | 4 | 0.0 | 0.0 | 0.05 | 0.28 | 0.05 | 94 | 1006.8 |
| 20260506095318 | 10 | 4 | 0.0 | 0.0 | 0.05 | 0.28 | 0.05 | 94 | 1006.8 |
| 20260506094818 | 10 | 4 | 0.0 | 0.0 | 0.03 | 0.25 | 0.03 | 94 | 1006.8 |
| 20260506094336 | 10 | 4 | 0.0 | 0.0 | 0.03 | 0.25 | 0.03 | 94 | 1006.8 |
| 20260506093814 | 10 | 4 | 0.0 | 0.0 | 0.03 | 0.25 | 0.03 | 94 | 1006.8 |
| 20260506093315 | 10 | 18 | 0.0 | 0.0 | 0.03 | 0.25 | 0.03 | 94 | 1006.8 |
| 20260506092832 | 10 | 245 | 0.0 | 0.0 | 0.03 | 0.25 | 0.03 | 93 | 1006.9 |
| 20260506092352 | 10 | 120 | 0.0 | 0.0 | 0.00 | 0.23 | 0.00 | 93 | 1006.9 |
| 20260506091829 | 10 | 120 | 0.0 | 0.0 | 0.00 | 0.23 | 0.00 | 93 | 1006.9 |
| 20260506091328 | 10 | 120 | 0.0 | 0.0 | 0.00 | 0.23 | 0.00 | 93 | 1006.9 |
| 20260506090826 | 10 | 120 | 0.0 | 0.0 | 0.00 | 0.23 | 0.00 | 93 | 1006.8 |
| 20260506090326 | 10 | 120 | 0.0 | 0.0 | 0.00 | 0.23 | 0.00 | 93 | 1006.9 |
| 20260506085825 | 10 | 120 | 0.0 | 0.0 | 0.00 | 0.23 | 0.00 | 93 | 1006.9 |
| 20260506085344 | 10 | 120 | 0.0 | 0.0 | 0.00 | 0.23 | 0.00 | 93 | 1007.0 |
| 20260506084820 | 10 | 120 | 0.0 | 0.0 | 0.00 | 0.23 | 0.00 | 92 | 1006.9 |
| 20260506084339 | 10 | 120 | 0.0 | 0.0 | 0.00 | 0.23 | 0.00 | 92 | 1007.0 |
| 20260506083837 | 10 | 120 | 0.0 | 0.0 | 0.00 | 0.23 | 0.00 | 92 | 1006.9 |
| 20260506083315 | 10 | 120 | 0.0 | 0.0 | 0.00 | 0.23 | 0.00 | 92 | 1006.9 |
| 20260506082814 | 10 | 120 | 0.0 | 0.0 | 0.00 | 0.23 | 0.00 | 92 | 1006.9 |
| 20260506082330 | 10 | 120 | 0.0 | 0.0 | 0.00 | 0.23 | 0.00 | 92 | 1006.9 |
| 20260506081829 | 10 | 258 | 0.0 | 0.0 | 0.00 | 0.23 | 0.00 | 92 | 1007.0 |
| 20260506081327 | 10 | 258 | 0.0 | 0.0 | 0.00 | 0.23 | 0.00 | 92 | 1007.0 |
| 20260506080824 | 10 | 258 | 0.0 | 0.0 | 0.00 | 0.23 | 0.00 | 92 | 1007.2 |
| 20260506080323 | 10 | 258 | 0.0 | 0.0 | 0.00 | 0.23 | 0.00 | 92 | 1007.1 |
| 20260506073332 | 10 | 289 | 0.0 | 0.0 | 0.00 | 0.23 | 0.00 | 92 | 1007.6 |
| 20260506072831 | 10 | 289 | 0.0 | 0.0 | 0.00 | 0.23 | 0.00 | 92 | 1007.5 |
| 20260506072329 | 10 | 289 | 0.0 | 0.0 | 0.00 | 0.23 | 0.00 | 92 | 1007.5 |
| 20260506071827 | 10 | 289 | 0.0 | 0.0 | 0.00 | 0.23 | 0.00 | 92 | 1007.6 |
| 20260506071327 | 10 | 289 | 0.0 | 0.0 | 0.00 | 0.23 | 0.00 | 92 | 1007.6 |
| 20260506070827 | 10 | 289 | 0.0 | 0.0 | 0.00 | 0.23 | 0.00 | 92 | 1007.9 |
| 20260506070343 | 10 | 83 | 0.0 | 0.0 | 0.00 | 0.23 | 0.00 | 92 | 1007.7 |
| 20260506062347 | 10 | 22 | 0.0 | 0.0 | 0.00 | 0.23 | 0.00 | 92 | 1008.1 |
| 20260506061826 | 10 | 22 | 0.0 | 0.0 | 0.00 | 0.23 | 0.00 | 92 | 1008.1 |
| 20260506061324 | 10 | 22 | 0.0 | 0.0 | 0.00 | 0.23 | 0.00 | 92 | 1008.2 |
| 20260506060823 | 10 | 22 | 0.0 | 0.0 | 0.00 | 0.23 | 0.00 | 92 | 1008.3 |
| 20260506060323 | 10 | 22 | 0.0 | 0.0 | 0.00 | 0.23 | 0.00 | 92 | 1008.3 |
| 20260506051331 | 11 | 45 | 0.0 | 0.0 | 0.00 | 0.23 | 0.00 | 91 | 1009.2 |
| 20260506050830 | 11 | 45 | 0.0 | 0.0 | 0.00 | 0.23 | 0.00 | 91 | 1009.1 |
| 20260506050330 | 11 | 45 | 0.0 | 0.0 | 0.00 | 0.23 | 0.00 | 91 | 1009.0 |
| 20260506044844 | 11 | 45 | 0.0 | 0.0 | 0.00 | 0.23 | 0.00 | 90 | 1009.1 |
| 20260506044322 | 11 | 45 | 0.0 | 0.0 | 0.00 | 0.23 | 0.00 | 90 | 1009.2 |
| 20260506043821 | 11 | 45 | 0.0 | 0.0 | 0.00 | 0.23 | 0.00 | 90 | 1009.3 |
| 20260506043322 | 11 | 45 | 0.0 | 0.0 | 0.00 | 0.23 | 0.00 | 90 | 1009.2 |
| 20260506042819 | 11 | 45 | 0.0 | 0.0 | 0.00 | 0.23 | 0.00 | 89 | 1009.3 |
| 20260506042340 | 11 | 45 | 0.0 | 0.0 | 0.00 | 0.23 | 0.00 | 89 | 1009.4 |
| 20260506041818 | 12 | 45 | 0.0 | 0.0 | 0.00 | 0.23 | 0.00 | 89 | 1009.4 |
| 20260506041316 | 12 | 45 | 0.0 | 0.0 | 0.00 | 0.23 | 0.00 | 89 | 1009.4 |
| 20260506040816 | 12 | 45 | 0.0 | 0.0 | 0.00 | 0.23 | 0.00 | 88 | 1009.5 |
| 20260506040316 | 12 | 45 | 0.0 | 0.0 | 0.00 | 0.23 | 0.00 | 88 | 1009.5 |
| 20260506035854 | 12 | 45 | 0.0 | 0.0 | 0.00 | 0.23 | 0.00 | 87 | 1009.6 |
| 20260506035331 | 12 | 45 | 0.0 | 0.0 | 0.00 | 0.23 | 0.00 | 87 | 1009.6 |
| 20260506034829 | 12 | 45 | 0.0 | 0.0 | 0.00 | 0.23 | 0.00 | 86 | 1009.6 |
| 20260506034328 | 12 | 45 | 0.0 | 0.0 | 0.00 | 0.23 | 0.00 | 86 | 1009.6 |
| 20260506033828 | 12 | 45 | 0.0 | 0.0 | 0.00 | 0.23 | 0.00 | 86 | 1009.6 |
| 20260506033327 | 12 | 45 | 0.0 | 0.0 | 0.00 | 0.23 | 0.00 | 86 | 1009.7 |
| 20260506032826 | 12 | 45 | 0.0 | 0.0 | 0.00 | 0.23 | 0.00 | 85 | 1009.5 |
| 20260506032323 | 12 | 45 | 0.0 | 0.0 | 0.00 | 0.23 | 0.00 | 84 | 1009.6 |
| 20260506031822 | 12 | 47 | 0.0 | 0.0 | 0.00 | 0.23 | 0.00 | 84 | 1009.7 |
| 20260506031322 | 12 | 51 | 0.0 | 0.0 | 0.00 | 0.23 | 0.00 | 84 | 1009.7 |
| 20260506030843 | 12 | 50 | 0.0 | 0.0 | 0.00 | 0.23 | 0.00 | 84 | 1009.8 |
| 20260506030320 | 12 | 51 | 0.0 | 0.0 | 0.00 | 0.23 | 0.00 | 84 | 1009.7 |
| 20260506025818 | 12 | 39 | 0.0 | 0.0 | 0.00 | 0.23 | 0.00 | 85 | 1009.7 |
| 20260506025317 | 12 | 29 | 0.0 | 0.0 | 0.00 | 0.23 | 0.00 | 85 | 1009.7 |
| 20260506024816 | 12 | 47 | 0.0 | 0.0 | 0.00 | 0.23 | 0.00 | 86 | 1009.8 |
| 20260506024314 | 13 | 87 | 0.0 | 0.0 | 0.00 | 0.23 | 0.00 | 87 | 1009.7 |
| 20260506023814 | 13 | 59 | 0.0 | 0.0 | 0.00 | 0.23 | 0.00 | 87 | 1009.6 |
| 20260506023333 | 13 | 37 | 0.0 | 0.0 | 0.00 | 0.23 | 0.00 | 87 | 1009.6 |
| 20260506022831 | 13 | 63 | 0.0 | 0.0 | 0.00 | 0.23 | 0.23 | 88 | 1009.5 |
| 20260506022329 | 13 | 87 | 0.0 | 0.0 | 0.00 | 0.23 | 0.23 | 88 | 1009.5 |
| 20260506021847 | 13 | 48 | 0.0 | 0.0 | 0.00 | 0.23 | 0.23 | 88 | 1009.4 |
| 20260506021326 | 13 | 31 | 0.0 | 0.0 | 0.00 | 0.23 | 0.23 | 88 | 1009.3 |
| 20260506020825 | 13 | 59 | 0.0 | 1.6 | 0.00 | 0.23 | 0.23 | 89 | 1009.2 |
| 20260506020327 | 13 | 83 | 0.0 | 1.6 | 0.00 | 0.23 | 0.23 | 89 | 1009.4 |
| 20260506015825 | 13 | 34 | 0.0 | 0.0 | 0.00 | 0.23 | 0.23 | 90 | 1009.3 |
| 20260506015323 | 13 | 354 | 0.0 | 0.0 | 0.00 | 0.23 | 0.23 | 91 | 1009.3 |
| 20260506014823 | 13 | 100 | 0.0 | 0.0 | 0.00 | 0.23 | 0.23 | 91 | 1009.3 |
| 20260506014322 | 13 | 305 | 0.0 | 1.6 | 0.00 | 0.23 | 0.23 | 92 | 1009.3 |
| 20260506013819 | 13 | 41 | 0.0 | 1.6 | 0.00 | 0.23 | 0.23 | 94 | 1009.1 |
| 20260506013319 | 14 | 62 | 0.0 | 0.0 | 0.00 | 0.23 | 0.23 | 94 | 1008.9 |
| 20260506012815 | 14 | 312 | 0.0 | 0.0 | 0.00 | 0.23 | 0.23 | 95 | 1008.9 |
| 20260506012332 | 14 | 359 | 0.0 | 0.0 | 0.00 | 0.23 | 0.23 | 95 | 1008.8 |
| 20260506011847 | 14 | 328 | 0.0 | 0.0 | 0.00 | 0.23 | 0.23 | 95 | 1008.5 |
| 20260506011323 | 14 | 318 | 0.0 | 0.0 | 0.00 | 0.23 | 0.23 | 94 | 1008.2 |
| 20260506010821 | 14 | 318 | 0.0 | 0.0 | 0.00 | 0.23 | 0.23 | 94 | 1008.0 |
| 20260506010322 | 14 | 318 | 0.0 | 0.0 | 0.00 | 0.23 | 0.23 | 94 | 1008.0 |
| 20260506005820 | 14 | 318 | 0.0 | 0.0 | 0.00 | 0.23 | 0.23 | 94 | 1008.0 |
| 20260506005318 | 14 | 318 | 0.0 | 0.0 | 0.00 | 0.23 | 0.23 | 93 | 1007.9 |
| 20260506004837 | 15 | 318 | 0.0 | 0.0 | 0.00 | 0.23 | 0.23 | 94 | 1007.8 |
| 20260506004315 | 15 | 318 | 0.0 | 0.0 | 0.00 | 0.23 | 0.23 | 93 | 1007.8 |
| 20260506003814 | 15 | 318 | 0.0 | 0.0 | 0.00 | 0.23 | 0.23 | 93 | 1007.7 |
| 20260506003333 | 15 | 318 | 0.0 | 0.0 | 0.00 | 0.23 | 0.23 | 93 | 1007.5 |
| 20260506002831 | 15 | 318 | 0.0 | 0.0 | 0.00 | 0.23 | 0.23 | 93 | 1007.5 |
| 20260506002330 | 15 | 318 | 0.0 | 0.0 | 0.00 | 0.23 | 0.23 | 93 | 1007.5 |
| 20260506001829 | 15 | 318 | 0.0 | 0.0 | 0.00 | 0.23 | 0.23 | 92 | 1007.5 |
| 20260506001328 | 15 | 318 | 0.0 | 0.0 | 0.00 | 0.23 | 0.23 | 92 | 1007.3 |
| 20260506000829 | 15 | 318 | 0.0 | 0.0 | 0.00 | 0.23 | 0.23 | 92 | 1007.1 |
| 20260506000327 | 15 | 318 | 0.0 | 0.0 | 0.00 | 0.23 | 0.23 | 91 | 1007.1 |
| 20260505235824 | 16 | 318 | 0.0 | 0.0 | 0.00 | 0.23 | 0.23 | 91 | 1007.0 |
| 20260505235345 | 16 | 318 | 0.0 | 0.0 | 0.00 | 0.23 | 0.23 | 91 | 1006.9 |
| 20260505234824 | 16 | 318 | 0.0 | 0.0 | 0.00 | 0.23 | 0.23 | 90 | 1006.9 |
| 20260505234323 | 16 | 318 | 0.0 | 0.0 | 0.00 | 0.23 | 0.23 | 90 | 1006.9 |
| 20260505233821 | 16 | 318 | 0.0 | 0.0 | 0.00 | 0.23 | 0.23 | 89 | 1006.9 |
| 20260505233320 | 16 | 318 | 0.0 | 0.0 | 0.00 | 0.23 | 0.23 | 88 | 1007.0 |
| 20260505232820 | 16 | 318 | 0.0 | 0.0 | 0.00 | 0.23 | 0.23 | 87 | 1006.9 |
| 20260505232318 | 16 | 318 | 0.0 | 0.0 | 0.00 | 0.23 | 0.23 | 86 | 1007.1 |
| 20260505231837 | 17 | 298 | 0.0 | 0.0 | 0.00 | 0.23 | 0.23 | 85 | 1007.0 |
| 20260505231337 | 17 | 298 | 0.0 | 0.0 | 0.00 | 0.23 | 0.23 | 85 | 1006.9 |
| 20260505230834 | 17 | 298 | 0.0 | 0.0 | 0.00 | 0.23 | 0.23 | 84 | 1006.8 |
| 20260505230332 | 17 | 321 | 0.0 | 0.0 | 0.00 | 0.23 | 0.23 | 83 | 1006.9 |
| 20260505225831 | 17 | 190 | 0.0 | 0.0 | 0.00 | 0.23 | 0.23 | 82 | 1006.8 |
| 20260505225331 | 17 | 189 | 0.0 | 0.0 | 0.00 | 0.23 | 0.23 | 82 | 1006.7 |
| 20260505224850 | 17 | 220 | 0.0 | 0.0 | 0.00 | 0.23 | 0.23 | 82 | 1006.8 |
| 20260505224327 | 17 | 251 | 0.0 | 0.0 | 0.00 | 0.23 | 0.23 | 81 | 1006.8 |
| 20260505223826 | 17 | 227 | 0.0 | 0.0 | 0.00 | 0.23 | 0.23 | 81 | 1006.8 |
| 20260505223326 | 17 | 227 | 0.0 | 0.0 | 0.00 | 0.23 | 0.23 | 82 | 1006.6 |
| 20260505222824 | 17 | 302 | 0.0 | 0.0 | 0.00 | 0.23 | 0.23 | 82 | 1006.5 |
| 20260505222323 | 17 | 302 | 0.0 | 0.0 | 0.00 | 0.23 | 0.23 | 82 | 1006.5 |
| 20260505221821 | 17 | 302 | 0.0 | 0.0 | 0.00 | 0.23 | 0.23 | 83 | 1006.5 |
| 20260505221318 | 17 | 302 | 0.0 | 0.0 | 0.00 | 0.23 | 0.23 | 83 | 1006.6 |
| 20260505220838 | 17 | 299 | 0.0 | 0.0 | 0.00 | 0.23 | 0.23 | 83 | 1006.5 |
| 20260505220317 | 17 | 208 | 0.0 | 0.0 | 0.00 | 0.23 | 0.23 | 83 | 1006.4 |
| 20260505215815 | 17 | 208 | 0.0 | 0.0 | 0.03 | 0.23 | 0.23 | 84 | 1006.4 |
| 20260505215334 | 17 | 204 | 0.0 | 0.0 | 0.03 | 0.23 | 0.23 | 83 | 1006.4 |
| 20260505214833 | 17 | 203 | 0.0 | 0.0 | 0.03 | 0.23 | 0.23 | 84 | 1006.3 |
| 20260505214331 | 17 | 160 | 0.0 | 1.6 | 0.05 | 0.23 | 0.23 | 84 | 1006.4 |
| 20260505213830 | 17 | 233 | 0.0 | 1.6 | 0.05 | 0.23 | 0.23 | 85 | 1006.5 |
| 20260505213330 | 17 | 181 | 0.0 | 0.0 | 0.08 | 0.23 | 0.23 | 85 | 1006.4 |
| 20260505212827 | 16 | 158 | 0.0 | 0.0 | 0.08 | 0.23 | 0.23 | 86 | 1006.4 |
| 20260505212325 | 16 | 183 | 0.0 | 0.0 | 0.08 | 0.23 | 0.23 | 86 | 1006.5 |
| 20260505211825 | 16 | 211 | 0.0 | 0.0 | 0.08 | 0.23 | 0.23 | 88 | 1006.6 |
| 20260505211346 | 16 | 179 | 0.0 | 0.0 | 0.15 | 0.23 | 0.23 | 88 | 1006.6 |
| 20260505203822 | 16 | 271 | 0.0 | 0.0 | 0.18 | 0.18 | 0.18 | 86 | 1007.3 |
| 20260505203323 | 16 | 267 | 0.0 | 11.3 | 0.15 | 0.15 | 0.15 | 85 | 1007.1 |
| 20260505202822 | 16 | 275 | 0.0 | 11.3 | 0.15 | 0.15 | 0.15 | 84 | 1006.7 |